Hourly Data Report for August 23, 2000

SHERBROOKE A
QUEBEC

45°26'00.000" N
71°41'00.000" W
241.40 m
7028124
71610
YSC

Download Data

Hourly Data (August 2000)
Hourly Data Report for August 23, 2000
TIME
LST
Temp Definition
°C
Dew Point Definition
°C
Rel Hum Definition
%
Precip. Amount Definition
mm

Wind Dir Definition
10's deg

Wind Spd Definition
km/h
Visibility Definition
km
Stn Press Definition
kPa
Hmdx Definition


Wind Chill Definition


Weather Definition


00:00 12.5 11.7 95   36 4 15.0 99.31      
01:00 12.7 11.6 93     0 15.0 99.25      
02:00 12.4 11.4 94     0 15.0 99.25      
03:00 12.6 11.4 92   5 4 15.0 99.18      
04:00 12.4 11.7 95   6 4 15.0 99.22      
05:00 12.4 11.8 96   7 4 15.0 99.18      
06:00 14.2 12.1 87   10 7 15.0 99.12      
07:00 14.9 12.8 87   1 4 24.1 99.08     Cloudy
08:00 15.9 13.3 85   5 4 24.1 99.05     Cloudy
09:00 17.5 14.4 82   4 6 24.1 98.98     Cloudy
10:00 19.1 14.1 73     0 24.1 98.88     Cloudy
11:00 16.7 15.1 90   24 13 4.0 98.92     Rain, Fog
12:00 16.7 15.8 94   12 9 9.7 98.82     Rain, Fog
13:00 17.1 15.5 90   14 7 9.7 98.72     Rain, Fog
14:00 16.3 15.0 92   10 11 12.9 98.62     Rain
15:00 16.7 15.2 91   13 13 9.7 98.52     Rain, Fog
16:00 16.9 15.6 92   11 7 6.4 98.42     Rain, Fog
17:00 16.7 15.7 94   15 7 4.8 98.36     Rain
18:00 16.6 15.9 96   16 6 1.9 98.32     Rain
19:00 16.6 16.1 97   23 9 0.8 98.32     Moderate Rain
20:00 16.7 16.3 97   23 9 1.4 98.36     Rain
21:00 16.7 16.2 97   24 13 6.4 98.36      
22:00 16.3 15.7 96   27 15 3.9 98.36     Drizzle
23:00 15.8 15.3 97   27 9 5.6 98.39      

Notes on Data Quality.

Legend

  • E = Estimated
  • M = Missing
  • NA = Not Available*
  • [empty] = Indicates an unobserved value
Date modified: